sat.trackr.live / text

‹ back to catalog

STARLINK-6086

NORAD 56545 · 2023-065AU

PAYLOAD ACTIVE UNKNOWN

§ Identity

Operator
Country
US
Launch date
2023-05-14
Launch site
AFETR
Launch vehicle
Mass (kg)
RCS (m²)

Purposes: comms

External: N2YO · Heavens-Above · Gunter

§ Orbital elements

Epoch: 2026-05-24T18:02:40.630560Z

Period
94.27 min
Inclination
43.0040°
Eccentricity
0.0001546
Mean motion
15.27570759 rev/d
Perigee alt
482.0 km
Apogee alt
484.1 km
Semi-major
6,861.2 km
B*
-2.8983e-5
RAAN
154.1314°
Arg perigee
270.6663°
Mean anomaly
89.4012°
Rev number
16,810

§ Raw data

STARLINK-60861 56545U 23065AU  26144.75185915 -.00001059  00000+0 -28983-4 0  99992 56545  43.0040 154.1314 0001546 270.6663  89.4012 15.27570759168101

JSON: /api/v1/satellites/56545 · /tle

For live sub-satellite position, see the globe view (requires WebGL).

§ Visibility from observer

Set your observer location to see the next 7 days of passes ≥ 10°. The values pass through the URL so the page stays shareable.

No JS? Fill the form by hand. The geolocation button needs JavaScript.